Starlink 30479

operational
NORAD ID: 57898 Int'l Des: 2023-146 Owner: SPXS Country: US Constellation: starlink
LEOCIRCULAR

关于 Starlink 30479

正在加载描述...

实时位置

正在加载3D地球...

即将过境

高度历史

Altitude vs Time

uPlot chart will show altitude changes over time

两行轨道根数

1 57898U 23146H 25351.50582441 -.00001570 00000-0 -10118-3 0 9997
2 57898 43.0056 39.9127 0001511 282.8243 77.2431 15.02536895124707
Epoch: Dec 17, 2025 • Age: 10 hours

当前状态

高度 558.2 km
速度 7.58 km/s
星下点 6.23°N, 8.64°W
发射日期 Sep 20, 2023
运行时间 2.2 years
类型 internet

技术详情

分类 Payload
质量 730.00 kg
干质量 700.00 kg
总质量 730.00 kg
长度 0.30 m
直径 4.10 m
跨度 29.00 m
形状 Box + pan
制造商 SPXS
平台类型 Starlink V2M
阶段状态 In Orbit
所有者/国家 SPXS/US

大型星座

Loading constellations...